User: anonymous   Login
Location: Berlin
(38.3226°N, 75.2177°W)
Time: 23:59:47
(UTC+00:00)
Language:

Cosmos 2279 Rocket - Orbit

View from above orbital plane
View from above orbital plane
View from above satellite
View from above satellite

Ground track
Ground track

The orbit data is extracted from the following two-line orbital elements,

1 23093U 94024B   21015.49702141  .00000140  00000-0  12442-3 0  9994
2 23093  82.9447 221.2797 0009138 301.3236  58.7027 13.77841793811348
Epoch (UTC): 15 January 2021 11:55:42
Eccentricity: 0.0009138
inclination: 82.9447°
perigee height: 965 km
apogee height: 978 km
right ascension of ascending node: 221.2797°
argument of perigee: 301.3236°
revolutions per day: 13.77841793
mean anomaly at epoch: 58.7027°
orbit number at epoch: 81134

The dashed part of the orbit path shows where the satellite is in the earth's shadow,  

DLR